Other Surface Observations
Issued by NWS Upton, NY

Home | Current Version | Previous Version | Text Only | Print | Product List | Glossary On
Versions: 1 2 3 4 5 6 7 8 9 10 11 12 13 14 15 16 17 18 19 20 21 22 23 24 25 26 27 28 29 30 31 32 33 34 35 36 37 38 39 40 41 42 43 44 45 46 47 48 49 50
467
SXUS51 KOKX 250857
OSOOKX
NEW YORK CITY METROPOLITAN AREA WEATHER ROUNDUP
National Weather Service New York NY
400 AM EST SAT NOV 25 2017

CITY           SKY/WX    TMP DP  RH WIND       PRES   REMARKS
Central Park   CLEAR     43  30  60 VRB5      29.89F
LaGuardia APRT CLEAR     43  32  65 SW6       29.87F
Kennedy INTL   CLEAR     39  36  89 SW9       29.89F WCI  33
Newark Liberty PTCLDY    38  29  70 W5        29.88F WCI  34
Teterboro APRT CLEAR     35  27  72 CALM      29.87F
Bronx Bot Gard   N/A     39  32  75 NE2       29.88S
Bronx Lehman C   N/A     45 N/A N/A SW6         N/A
Queens College   N/A     43 N/A N/A SW5         N/A
Breezy Point     N/A     43 N/A N/A SW6         N/A
Brooklyn Coll    N/A     43 N/A N/A SW5         N/A
Staten Island    N/A     37 N/A N/A S3          N/A

>>>>>>>>>>>>>>>>>>>>>>>>>>>>>>>>> KEY <<<<<<<<<<<<<<<<<<<<<<<<<<<<<<<
> SKY/WX - SKY CONDITION/PRESENT    : R : WCI - WIND CHILL INDEX    <
>          WEATHER                  : E : VSB - VISIBILITY IN MILES <
> TMP    - TEMPERATURE IN DEG F     : M : HX  - HEAT INDEX          <
> DP     - DEW POINT TEMPERATURE    : A : TC  - TEMPERATURE IN      <
> RH     - RELATIVE HUMIDITY        : R :       CELSIUS             <
> WIND   - DIRECTION/SPEED (MPH)    : K : VRB - VARIABLE WIND  DIR  <
> PRES   - PRESSURE (IN HG)         : S :                           <
>>>>>>>>>>>>>>>>>>>>>>>>>>>>>>>>> KEY <<<<<<<<<<<<<<<<<<<<<<<<<<<<<<<




USA.gov is the U.S. government's official web portal to all federal, state and local government web resources and services.